Location: Celina Division
(33.3022°N, 96.7580°W)
Time: 14:15:57
(UTC+00:00)

Cosmos 1939 Rocket - Pass Details

Date: 08 December 2021
Orbit: 531 x 582 km, 97.4° (Epoch: 28 January)

Event Time Altitude Azimuth Distance (km) Brightness Sun altitude
Rises 12:29:38 0° 11° (NNE) 2,701 6.3 -10.2°
Reaches altitude 10° 12:31:46 10° 12° (NNE) 1,799 5.4 -9.8°
Maximum altitude 12:35:39 87° 104° (ESE) 539 2.8 -9.0°
Drops below altitude 10° 12:39:28 10° 191° (SSW) 1,773 5.6 -8.3°
Sets 12:41:34 0° 192° (SSW) 2,658 6.5 -7.9°
